CDT,Max TemperatureF,Mean TemperatureF,Min TemperatureF,Max Dew PointF,MeanDew PointF,Min DewpointF,Max Humidity, Mean Humidity, Min Humidity, Max Sea Level PressureIn, Mean Sea Level PressureIn, Min Sea Level PressureIn, Max VisibilityMiles, Mean VisibilityMiles, Min VisibilityMiles, Max Wind SpeedMPH, Mean Wind SpeedMPH, Max Gust SpeedMPH,PrecipitationIn, CloudCover, Events, WindDirDegrees
2012-3-1,26,20,15,25,22,16,100,98,86,29.73,29.62,29.55,10,5,0,12,6,,0.12,8,Fog-Snow,183
2012-3-2,24,20,17,25,21,16,100,94,86,29.83,29.66,29.54,10,4,1,30,17,39,0.93,7,Snow,309
2012-3-3,19,12,6,14,9,5,100,88,74,29.91,29.86,29.78,10,10,3,16,11,21,0.00,3,Snow,296
2012-3-4,24,19,14,19,17,12,100,89,74,30.02,29.87,29.68,10,8,2,21,8,24,0.21,4,Snow,298
2012-3-5,44,29,14,34,27,14,100,82,61,29.95,29.73,29.60,10,10,2,17,9,24,0.00,2,Snow,203
2012-3-6,39,34,28,32,30,27,100,86,65,29.71,29.47,29.37,10,9,6,17,8,20,0.00,2,,277
2012-3-7,28,22,17,28,19,14,100,88,69,29.95,29.85,29.71,10,9,4,25,15,30,0.00,6,Snow,322
2012-3-8,32,24,15,28,18,10,93,75,47,30.41,30.16,30.00,10,10,2,28,16,40,0.06,2,Snow,300
2012-3-9,42,28,14,32,19,7,81,70,56,30.42,30.15,29.81,10,10,10,23,11,30,0.00,0,,166
2012-3-10,60,46,32,39,32,27,81,61,39,29.78,29.74,29.70,10,10,10,15,10,17,0.00,0,,252
2012-3-11,64,47,30,48,39,30,100,82,52,29.75,29.60,29.49,10,10,8,16,10,23,0.00,0,,146
2012-3-12,53,44,35,43,33,23,100,72,35,29.80,29.56,29.43,10,9,0,32,14,44,0.00,1,Fog,254
2012-3-13,60,43,26,46,32,23,93,64,41,29.84,29.69,29.45,10,10,10,22,10,33,0.00,0,,155
2012-3-14,50,42,33,39,22,12,76,45,24,29.98,29.81,29.42,10,10,10,34,13,47,0.00,0,,290
2012-3-15,62,47,32,32,26,21,75,49,26,30.01,29.95,29.87,10,10,2,17,8,23,0.00,0,,180
2012-3-16,71,55,39,45,36,28,75,51,31,29.86,29.66,29.51,10,10,9,20,12,28,0.00,0,,177
2012-3-17,68,54,39,46,39,36,93,64,37,29.68,29.61,29.53,10,10,10,20,7,24,0.00,0,,15
2012-3-18,73,57,41,57,50,41,100,86,50,29.52,29.40,29.32,10,6,0,22,12,29,0.00,2,Fog-Rain,135
2012-3-19,68,56,42,57,47,28,100,68,30,29.54,29.34,29.28,10,10,9,28,17,38,0.00,0,Rain,182
2012-3-20,53,42,32,28,25,18,87,53,26,29.84,29.80,29.68,10,10,10,24,14,29,0.00,0,,233
2012-3-21,62,48,33,30,27,25,75,46,26,29.95,29.88,29.80,10,10,10,17,11,25,0.00,0,,235
2012-3-22,68,50,32,54,38,27,100,60,37,30.03,29.97,29.91,10,10,10,16,9,21,0.00,0,,151
2012-3-23,62,55,48,57,54,48,100,97,82,29.95,29.92,29.88,10,5,0,12,5,,0.00,8,Fog,132
2012-3-24,51,42,32,52,38,28,100,89,65,30.22,30.06,29.87,10,7,0,26,13,34,0.00,6,Fog-Rain,334
2012-3-25,42,32,23,28,26,23,100,84,53,30.29,30.25,30.19,10,10,6,21,7,25,0.00,4,,86
2012-3-26,53,42,30,41,31,25,87,73,57,30.18,29.90,29.58,10,10,10,28,17,38,0.00,5,,128
2012-3-27,39,37,35,39,38,36,100,100,100,29.82,29.49,29.28,10,6,1,29,14,37,0.19,8,Rain-Thunderstorm,325
2012-3-28,42,37,32,37,34,32,100,93,81,30.08,30.01,29.93,10,10,10,16,8,20,0.00,6,,91
2012-3-29,48,40,32,39,37,32,100,92,71,29.96,29.83,29.76,10,10,10,20,12,25,0.00,2,Thunderstorm,107
2012-3-30,68,47,26,41,33,27,100,66,24,29.76,29.67,29.56,10,7,0,21,9,28,0.00,1,Fog,160
2012-3-31,66,56,46,39,35,28,71,47,27,29.69,29.62,29.52,10,10,6,20,11,21,0.00,0,,275